,,Stat6,,Stat2,,Stat8,,Stat9,,Stat10,,Wind1,,Wind1,
time,status,PA1M_AVG,status,PR1M_SUM,status,RH1M_AVG,status,SR1M_AVG,status,TA1M_AVG,status,W1dAve1m,status,W1sAve1m,
2008-09-22, 00:00:00,VALID,918.492,VALID,0,VALID,100,VALID,-0.0509425,VALID,19.9464,VALID,25,VALID,0.70827,
2008-09-22, 00:01:00,VALID,918.464,VALID,0,VALID,100,VALID,-0.0169808,VALID,19.9364,VALID,7,VALID,0.944618,
2008-09-22, 00:02:00,VALID,918.471,VALID,0,VALID,100,VALID,-0.0509425,VALID,19.9294,VALID,17,VALID,0.877362,
2008-09-22, 00:03:00,VALID,918.451,VALID,0,VALID,100,VALID,-0.0169808,VALID,19.9232,VALID,4,VALID,0.905231,
2008-09-22, 00:04:00,VALID,918.448,VALID,0,VALID,100,VALID,-0.0169808,VALID,19.9302,VALID,15,VALID,1.12612,
2008-09-22, 00:05:00,VALID,918.434,VALID,0,VALID,100,VALID,-0.0339617,VALID,19.9334,VALID,19,VALID,1.08784,
2008-09-22, 00:06:00,VALID,918.433,VALID,0,VALID,100,VALID,-0.0679233,VALID,19.9202,VALID,23,VALID,0.918924,
2008-09-22, 00:07:00,VALID,918.424,VALID,0,VALID,100,VALID,-0.0679233,VALID,19.9267,VALID,23,VALID,0.793857,
2008-09-22, 00:08:00,VALID,918.408,VALID,0,VALID,100,VALID,-0.0509425,VALID,19.9135,VALID,26,VALID,0.608467,
2008-09-22, 00:09:00,VALID,918.383,VALID,0,VALID,100,VALID,-0.0509425,VALID,19.9105,VALID,27,VALID,0.353849,
2008-09-22, 00:10:00,VALID,918.357,VALID,0,VALID,100,VALID,-0.0679233,VALID,19.9047,VALID,27,VALID,0,
2008-09-22, 00:11:00,VALID,918.324,VALID,0,VALID,100,VALID,-0.0509425,VALID,19.891,VALID,27,VALID,0,
2008-09-22, 00:12:00,VALID,918.302,VALID,0,VALID,100,VALID,0,VALID,19.884,VALID,27,VALID,0,
2008-09-22, 00:13:00,VALID,918.278,VALID,0,VALID,100,VALID,0,VALID,19.878,VALID,27,VALID,0,
2008-09-22, 00:14:00,VALID,918.257,VALID,0,VALID,100,VALID,-0.0339617,VALID,19.8745,VALID,26,VALID,0,
2008-09-22, 00:15:00,VALID,918.224,VALID,0,VALID,100,VALID,-0.101885,VALID,19.878,VALID,26,VALID,0,
2008-09-22, 00:16:00,VALID,918.207,VALID,0,VALID,100,VALID,-0.0509425,VALID,19.878,VALID,26,VALID,0,
2008-09-22, 00:17:00,VALID,918.2,VALID,0,VALID,100,VALID,-0.0509425,VALID,19.8743,VALID,8,VALID,0,
2008-09-22, 00:18:00,VALID,918.205,VALID,0,VALID,100,VALID,-0.0679233,VALID,19.8843,VALID,357,VALID,0,
2008-09-22, 00:19:00,VALID,918.205,VALID,0,VALID,100,VALID,-0.101885,VALID,19.8947,VALID,357,VALID,0,
2008-09-22, 00:20:00,VALID,918.185,VALID,0,VALID,100,VALID,-0.118866,VALID,19.8858,VALID,357,VALID,0,
2008-09-22, 00:21:00,VALID,918.165,VALID,0,VALID,100,VALID,-0.101885,VALID,19.882,VALID,357,VALID,0,
2008-09-22, 00:22:00,VALID,918.146,VALID,0,VALID,100,VALID,-0.101885,VALID,19.8755,VALID,357,VALID,0,
2008-09-22, 00:23:00,VALID,918.123,VALID,0,VALID,100,VALID,-0.101885,VALID,19.876,VALID,357,VALID,0,
2008-09-22, 00:24:00,VALID,918.082,VALID,0,VALID,100,VALID,-0.118866,VALID,19.8858,VALID,357,VALID,0,
2008-09-22, 00:25:00,VALID,918.054,VALID,0,VALID,100,VALID,-0.118866,VALID,19.8793,VALID,357,VALID,0,
2008-09-22, 00:26:00,VALID,918.042,VALID,0,VALID,100,VALID,-0.135847,VALID,19.8922,VALID,357,VALID,0,
2008-09-22, 00:27:00,VALID,918.023,VALID,0,VALID,100,VALID,-0.169808,VALID,19.899,VALID,357,VALID,0,
2008-09-22, 00:28:00,VALID,918.008,VALID,0,VALID,100,VALID,-0.118866,VALID,19.9117,VALID,357,VALID,0,
2008-09-22, 00:29:00,VALID,918.011,VALID,0,VALID,100,VALID,-0.0849042,VALID,19.918,VALID,357,VALID,0,
2008-09-22, 00:30:00,VALID,918.008,VALID,0,VALID,100,VALID,-0.101885,VALID,19.9279,VALID,357,VALID,0,
2008-09-22, 00:31:00,VALID,918.014,VALID,0,VALID,100,VALID,-0.118866,VALID,19.9472,VALID,357,VALID,0,
2008-09-22, 00:32:00,VALID,918.006,VALID,0,VALID,100,VALID,-0.101885,VALID,19.9669,VALID,357,VALID,0,
2008-09-22, 00:33:00,VALID,917.999,VALID,0,VALID,100,VALID,-0.118866,VALID,19.9764,VALID,357,VALID,0,
2008-09-22, 00:34:00,VALID,917.98,VALID,0,VALID,100,VALID,-0.0339617,VALID,19.9786,VALID,357,VALID,0,
2008-09-22, 00:35:00,VALID,917.947,VALID,0,VALID,100,VALID,-0.0339617,VALID,19.9783,VALID,357,VALID,0,
2008-09-22, 00:36:00,VALID,917.92,VALID,0,VALID,100,VALID,-0.0169808,VALID,19.9783,VALID,357,VALID,0,
2008-09-22, 00:37:00,VALID,917.903,VALID,0,VALID,100,VALID,-0.0339617,VALID,19.9916,VALID,357,VALID,0,
2008-09-22, 00:38:00,VALID,917.874,VALID,0,VALID,100,VALID,-0.0339617,VALID,19.9813,VALID,357,VALID,0,
2008-09-22, 00:39:00,VALID,917.868,VALID,0,VALID,100,VALID,0,VALID,19.9686,VALID,357,VALID,0,
2008-09-22, 00:40:00,VALID,917.857,VALID,0,VALID,100,VALID,0,VALID,19.9551,VALID,357,VALID,0,
2008-09-22, 00:41:00,VALID,917.863,VALID,0,VALID,100,VALID,-0.0509425,VALID,19.9297,VALID,357,VALID,0,
2008-09-22, 00:42:00,VALID,917.843,VALID,0,VALID,100,VALID,-0.0679233,VALID,19.897,VALID,357,VALID,0,
2008-09-22, 00:43:00,VALID,917.837,VALID,0,VALID,100,VALID,-0.0339617,VALID,19.8805,VALID,357,VALID,0,
2008-09-22, 00:44:00,VALID,917.82,VALID,0,VALID,100,VALID,-0.0339617,VALID,19.8648,VALID,357,VALID,0,
2008-09-22, 00:45:00,VALID,917.8,VALID,0,VALID,100,VALID,0,VALID,19.855,VALID,357,VALID,0,
2008-09-22, 00:46:00,VALID,917.777,VALID,0,VALID,100,VALID,0,VALID,19.8451,VALID,357,VALID,0,
2008-09-22, 00:47:00,VALID,917.774,VALID,0,VALID,100,VALID,0,VALID,19.8388,VALID,357,VALID,0,
2008-09-22, 00:48:00,VALID,917.746,VALID,0,VALID,100,VALID,-0.0169808,VALID,19.8218,VALID,357,VALID,0,
2008-09-22, 00:49:00,VALID,917.739,VALID,0,VALID,100,VALID,-0.0849042,VALID,19.8099,VALID,357,VALID,0,
2008-09-22, 00:50:00,VALID,917.714,VALID,0,VALID,100,VALID,-0.101885,VALID,19.7941,VALID,357,VALID,0,
2008-09-22, 00:51:00,VALID,917.696,VALID,0,VALID,100,VALID,-0.101885,VALID,19.8011,VALID,357,VALID,0,
2008-09-22, 00:52:00,VALID,917.681,VALID,0,VALID,100,VALID,-0.135847,VALID,19.7817,VALID,357,VALID,0,
2008-09-22, 00:53:00,VALID,917.651,VALID,0,VALID,100,VALID,-0.152827,VALID,19.7724,VALID,357,VALID,0,
2008-09-22, 00:54:00,VALID,917.624,VALID,0,VALID,100,VALID,-0.169808,VALID,19.7397,VALID,357,VALID,0,
2008-09-22, 00:55:00,VALID,917.614,VALID,0,VALID,100,VALID,-0.135847,VALID,19.7008,VALID,108,VALID,0,
2008-09-22, 00:56:00,VALID,917.598,VALID,0,VALID,100,VALID,-0.118866,VALID,19.6713,VALID,126,VALID,0,
2008-09-22, 00:57:00,VALID,917.582,VALID,0,VALID,100,VALID,-0.135847,VALID,19.6651,VALID,126,VALID,0,
2008-09-22, 00:58:00,VALID,917.58,VALID,0,VALID,100,VALID,-0.101885,VALID,19.6454,VALID,126,VALID,0,
2008-09-22, 00:59:00,VALID,917.562,VALID,0,VALID,100,VALID,-0.101885,VALID,19.6421,VALID,126,VALID,0,
2008-09-22, 01:00:00,VALID,917.579,VALID,0,VALID,100,VALID,-0.0849042,VALID,19.6287,VALID,126,VALID,0,
2008-09-22, 01:01:00,VALID,917.567,VALID,0,VALID,100,VALID,-0.0169808,VALID,19.6177,VALID,126,VALID,0,
2008-09-22, 01:02:00,VALID,917.568,VALID,0,VALID,100,VALID,-0.0169808,VALID,19.6117,VALID,126,VALID,0,
2008-09-22, 01:03:00,VALID,917.564,VALID,0,VALID,100,VALID,-0.0169808,VALID,19.6017,VALID,126,VALID,0,
2008-09-22, 01:04:00,VALID,917.556,VALID,0,VALID,100,VALID,0,VALID,19.6015,VALID,126,VALID,0,
2008-09-22, 01:05:00,VALID,917.546,VALID,0,VALID,100,VALID,0,VALID,19.5952,VALID,126,VALID,0,
2008-09-22, 01:06:00,VALID,917.54,VALID,0,VALID,100,VALID,0,VALID,19.5855,VALID,128,VALID,0,
2008-09-22, 01:07:00,VALID,917.54,VALID,0,VALID,100,VALID,-0.0169808,VALID,19.569,VALID,136,VALID,0.0548735,
2008-09-22, 01:08:00,VALID,917.545,VALID,0,VALID,100,VALID,-0.0169808,VALID,19.5593,VALID,145,VALID,0.329649,
2008-09-22, 01:09:00,VALID,917.544,VALID,0,VALID,100,VALID,-0.0169808,VALID,19.5269,VALID,154,VALID,0,
2008-09-22, 01:10:00,VALID,917.558,VALID,0,VALID,100,VALID,0.0169808,VALID,19.4977,VALID,156,VALID,0.596799,
2008-09-22, 01:11:00,VALID,917.565,VALID,0,VALID,100,VALID,-0.0169808,VALID,19.4715,VALID,160,VALID,0.547447,
2008-09-22, 01:12:00,VALID,917.546,VALID,0,VALID,100,VALID,0,VALID,19.459,VALID,163,VALID,0.470486,
2008-09-22, 01:13:00,VALID,917.567,VALID,0,VALID,100,VALID,-0.0169808,VALID,19.4492,VALID,166,VALID,0.514898,
2008-09-22, 01:14:00,VALID,917.56,VALID,0,VALID,100,VALID,0,VALID,19.4198,VALID,166,VALID,0.37936,
2008-09-22, 01:15:00,VALID,917.571,VALID,0,VALID,100,VALID,-0.0169808,VALID,19.4203,VALID,160,VALID,0.394627,
2008-09-22, 01:16:00,VALID,917.58,VALID,0,VALID,100,VALID,-0.0169808,VALID,19.4006,VALID,149,VALID,0.173077,
2008-09-22, 01:17:00,VALID,917.575,VALID,0,VALID,100,VALID,0,VALID,19.3814,VALID,140,VALID,0.388579,
2008-09-22, 01:18:00,VALID,917.579,VALID,0,VALID,100,VALID,-0.0169808,VALID,19.3489,VALID,132,VALID,0.563988,
2008-09-22, 01:19:00,VALID,917.575,VALID,0,VALID,100,VALID,-0.0339617,VALID,19.3195,VALID,131,VALID,0,
2008-09-22, 01:20:00,VALID,917.565,VALID,0,VALID,100,VALID,-0.0169808,VALID,19.3097,VALID,131,VALID,0.313802,
2008-09-22, 01:21:00,VALID,917.56,VALID,0,VALID,100,VALID,0,VALID,19.2993,VALID,131,VALID,0.571429,
2008-09-22, 01:22:00,VALID,917.543,VALID,0,VALID,100,VALID,0,VALID,19.303,VALID,138,VALID,0.647166,
2008-09-22, 01:23:00,VALID,917.536,VALID,0,VALID,100,VALID,0,VALID,19.3028,VALID,138,VALID,0.37936,
2008-09-22, 01:24:00,VALID,917.515,VALID,0,VALID,100,VALID,0,VALID,19.309,VALID,140,VALID,0.210136,
2008-09-22, 01:25:00,VALID,917.517,VALID,0,VALID,100,VALID,0,VALID,19.3227,VALID,159,VALID,0.605945,
2008-09-22, 01:26:00,VALID,917.49,VALID,0,VALID,100,VALID,0,VALID,19.3195,VALID,155,VALID,0.697731,
2008-09-22, 01:27:00,VALID,917.478,VALID,0,VALID,100,VALID,0,VALID,19.3255,VALID,157,VALID,0.264898,
2008-09-22, 01:28:00,VALID,917.467,VALID,0,VALID,100,VALID,-0.0169808,VALID,19.3327,VALID,154,VALID,0.319425,
2008-09-22, 01:29:00,VALID,917.458,VALID,0,VALID,100,VALID,0,VALID,19.3454,VALID,164,VALID,0.683949,
2008-09-22, 01:30:00,VALID,917.454,VALID,0,VALID,100,VALID,-0.0339617,VALID,19.3285,VALID,163,VALID,0.760417,
2008-09-22, 01:31:00,VALID,917.453,VALID,0,VALID,100,VALID,0,VALID,19.3257,VALID,159,VALID,0.223656,
2008-09-22, 01:32:00,VALID,917.442,VALID,0,VALID,100,VALID,0,VALID,19.3292,VALID,169,VALID,0,
2008-09-22, 01:33:00,VALID,917.44,VALID,0,VALID,100,VALID,0,VALID,19.326,VALID,170,VALID,0.241616,
2008-09-22, 01:34:00,VALID,917.417,VALID,0,VALID,100,VALID,0.0169808,VALID,19.312,VALID,161,VALID,0.221768,
2008-09-22, 01:35:00,VALID,917.406,VALID,0,VALID,100,VALID,0,VALID,19.29,VALID,139,VALID,0.305246,
2008-09-22, 01:36:00,VALID,917.39,VALID,0,VALID,100,VALID,0,VALID,19.274,VALID,133,VALID,0.00260417,
2008-09-22, 01:37:00,VALID,917.385,VALID,0,VALID,100,VALID,0,VALID,19.2286,VALID,116,VALID,0,
2008-09-22, 01:38:00,VALID,917.376,VALID,0,VALID,100,VALID,-0.0169808,VALID,19.2022,VALID,117,VALID,0.0829455,
2008-09-22, 01:39:00,VALID,917.357,VALID,0,VALID,100,VALID,-0.0169808,VALID,19.2059,VALID,108,VALID,0.514353,
2008-09-22, 01:40:00,VALID,917.346,VALID,0,VALID,100,VALID,0,VALID,19.1857,VALID,110,VALID,0.567708,
2008-09-22, 01:41:00,VALID,917.338,VALID,0,VALID,100,VALID,0.0169808,VALID,19.1825,VALID,117,VALID,0,
2008-09-22, 01:42:00,VALID,917.342,VALID,0,VALID,100,VALID,0,VALID,19.2089,VALID,118,VALID,0.0463034,
2008-09-22, 01:43:00,VALID,917.332,VALID,0,VALID,100,VALID,0,VALID,19.2124,VALID,131,VALID,0.677557,
2008-09-22, 01:44:00,VALID,917.324,VALID,0,VALID,100,VALID,0,VALID,19.2251,VALID,122,VALID,0.245384,
2008-09-22, 01:45:00,VALID,917.317,VALID,0,VALID,100,VALID,0,VALID,19.2416,VALID,139,VALID,0.65067,
2008-09-22, 01:46:00,VALID,917.312,VALID,0,VALID,100,VALID,0,VALID,19.2418,VALID,143,VALID,0,
2008-09-22, 01:47:00,VALID,917.302,VALID,0,VALID,100,VALID,-0.0169808,VALID,19.2386,VALID,146,VALID,0.510045,
2008-09-22, 01:48:00,VALID,917.299,VALID,0,VALID,100,VALID,-0.0169808,VALID,19.2384,VALID,144,VALID,0.014881,
2008-09-22, 01:49:00,VALID,917.301,VALID,0,VALID,100,VALID,-0.0339617,VALID,19.2349,VALID,137,VALID,0.546875,
2008-09-22, 01:50:00,VALID,917.307,VALID,0,VALID,100,VALID,-0.0339617,VALID,19.2217,VALID,142,VALID,1.149,
2008-09-22, 01:51:00,VALID,917.296,VALID,0,VALID,100,VALID,0,VALID,19.2286,VALID,140,VALID,1.12965,
2008-09-22, 01:52:00,VALID,917.297,VALID,0,VALID,100,VALID,-0.0339617,VALID,19.2187,VALID,135,VALID,1.03011,
2008-09-22, 01:53:00,VALID,917.278,VALID,0,VALID,100,VALID,0,VALID,19.2022,VALID,134,VALID,1.04989,
2008-09-22, 01:54:00,VALID,917.279,VALID,0,VALID,100,VALID,0,VALID,19.1957,VALID,139,VALID,0.910342,
2008-09-22, 01:55:00,VALID,917.283,VALID,0,VALID,100,VALID,-0.0509425,VALID,19.1997,VALID,145,VALID,1.22805,
2008-09-22, 01:56:00,VALID,917.262,VALID,0,VALID,100,VALID,-0.0169808,VALID,19.2157,VALID,151,VALID,1.04983,
2008-09-22, 01:57:00,VALID,917.237,VALID,0,VALID,100,VALID,-0.0339617,VALID,19.2092,VALID,148,VALID,1.08765,
2008-09-22, 01:58:00,VALID,917.226,VALID,0,VALID,100,VALID,0,VALID,19.2191,VALID,148,VALID,0.508168,
2008-09-22, 01:59:00,VALID,917.216,VALID,0,VALID,100,VALID,-0.0509425,VALID,19.2157,VALID,140,VALID,0,
2008-09-22, 02:00:00,VALID,917.186,VALID,0,VALID,100,VALID,-0.0339617,VALID,19.2122,VALID,155,VALID,0.489183,
2008-09-22, 02:01:00,VALID,917.177,VALID,0,VALID,100,VALID,-0.0509425,VALID,19.2094,VALID,148,VALID,0.983631,
2008-09-22, 02:02:00,VALID,917.163,VALID,0,VALID,100,VALID,-0.0339617,VALID,19.2059,VALID,141,VALID,0.390625,
2008-09-22, 02:03:00,VALID,917.156,VALID,0,VALID,100,VALID,0,VALID,19.1862,VALID,139,VALID,0.0459449,
2008-09-22, 02:04:00,VALID,917.158,VALID,0,VALID,100,VALID,-0.0509425,VALID,19.1897,VALID,137,VALID,0.00106534,
2008-09-22, 02:05:00,VALID,917.152,VALID,0,VALID,100,VALID,-0.0169808,VALID,19.1728,VALID,136,VALID,0,
2008-09-22, 02:06:00,VALID,917.157,VALID,0,VALID,100,VALID,-0.0509425,VALID,19.1897,VALID,149,VALID,0.975374,
2008-09-22, 02:07:00,VALID,917.157,VALID,0,VALID,100,VALID,0.0169808,VALID,19.1929,VALID,147,VALID,0.521984,
2008-09-22, 02:08:00,VALID,917.132,VALID,0,VALID,100,VALID,-0.0169808,VALID,19.1827,VALID,144,VALID,1.03553,
2008-09-22, 02:09:00,VALID,917.134,VALID,0,VALID,100,VALID,0,VALID,19.1758,VALID,139,VALID,1.07236,
2008-09-22, 02:10:00,VALID,917.139,VALID,0,VALID,100,VALID,-0.0339617,VALID,19.1737,VALID,133,VALID,0.965701,
2008-09-22, 02:11:00,VALID,917.148,VALID,0,VALID,100,VALID,-0.0339617,VALID,19.1635,VALID,129,VALID,0.914807,
2008-09-22, 02:12:00,VALID,917.148,VALID,0,VALID,100,VALID,0,VALID,19.1403,VALID,131,VALID,0.755265,
2008-09-22, 02:13:00,VALID,917.154,VALID,0,VALID,100,VALID,-0.0169808,VALID,19.1303,VALID,129,VALID,1.04592,
2008-09-22, 02:14:00,VALID,917.158,VALID,0,VALID,100,VALID,-0.0339617,VALID,19.1438,VALID,129,VALID,0.68378,
2008-09-22, 02:15:00,VALID,917.164,VALID,0,VALID,100,VALID,0,VALID,19.1378,VALID,111,VALID,0.842969,
2008-09-22, 02:16:00,VALID,917.167,VALID,0,VALID,100,VALID,0,VALID,19.1114,VALID,101,VALID,0.500363,
2008-09-22, 02:17:00,VALID,917.153,VALID,0,VALID,100,VALID,-0.0169808,VALID,19.0917,VALID,102,VALID,0.625191,
2008-09-22, 02:18:00,VALID,917.154,VALID,0,VALID,100,VALID,-0.0169808,VALID,19.0757,VALID,110,VALID,0.653942,
2008-09-22, 02:19:00,VALID,917.146,VALID,0,VALID,100,VALID,-0.0679233,VALID,19.0569,VALID,106,VALID,0.579942,
2008-09-22, 02:20:00,VALID,917.128,VALID,0,VALID,100,VALID,-0.135847,VALID,19.0642,VALID,107,VALID,0.875633,
2008-09-22, 02:21:00,VALID,917.103,VALID,0,VALID,100,VALID,-0.118866,VALID,19.0479,VALID,113,VALID,0.182355,
2008-09-22, 02:22:00,VALID,917.103,VALID,0,VALID,100,VALID,-0.118866,VALID,19.0609,VALID,123,VALID,0,
2008-09-22, 02:23:00,VALID,917.084,VALID,0,VALID,100,VALID,-0.101885,VALID,19.0444,VALID,137,VALID,0,
2008-09-22, 02:24:00,VALID,917.071,VALID,0,VALID,100,VALID,-0.135847,VALID,19.0482,VALID,131,VALID,0,
2008-09-22, 02:25:00,VALID,917.051,VALID,0,VALID,100,VALID,-0.135847,VALID,19.0419,VALID,120,VALID,0,
2008-09-22, 02:26:00,VALID,917.054,VALID,0,VALID,100,VALID,-0.135847,VALID,19.0387,VALID,134,VALID,0,
2008-09-22, 02:27:00,VALID,917.049,VALID,0,VALID,100,VALID,-0.101885,VALID,19.0287,VALID,122,VALID,0.273074,
2008-09-22, 02:28:00,VALID,917.056,VALID,0,VALID,100,VALID,-0.118866,VALID,19.0287,VALID,121,VALID,0.189631,
2008-09-22, 02:29:00,VALID,917.058,VALID,0,VALID,100,VALID,-0.0849042,VALID,19.0115,VALID,120,VALID,0.446733,
2008-09-22, 02:30:00,VALID,917.052,VALID,0,VALID,100,VALID,-0.101885,VALID,19.022,VALID,118,VALID,0,
2008-09-22, 02:31:00,VALID,917.069,VALID,0,VALID,100,VALID,-0.101885,VALID,19.0247,VALID,115,VALID,0,
2008-09-22, 02:32:00,VALID,917.066,VALID,0,VALID,100,VALID,-0.101885,VALID,19.035,VALID,115,VALID,0,
2008-09-22, 02:33:00,VALID,917.075,VALID,0,VALID,100,VALID,-0.101885,VALID,19.0215,VALID,119,VALID,0,
2008-09-22, 02:34:00,VALID,917.077,VALID,0,VALID,100,VALID,-0.0339617,VALID,19.024,VALID,119,VALID,0,
2008-09-22, 02:35:00,VALID,917.068,VALID,0,VALID,100,VALID,0,VALID,19.0138,VALID,119,VALID,0,
2008-09-22, 02:36:00,VALID,917.07,VALID,0,VALID,100,VALID,-0.0169808,VALID,19.0108,VALID,119,VALID,0,
2008-09-22, 02:37:00,VALID,917.072,VALID,0,VALID,100,VALID,0,VALID,18.9911,VALID,95,VALID,0,
2008-09-22, 02:38:00,VALID,917.076,VALID,0,VALID,100,VALID,0,VALID,18.9779,VALID,72,VALID,0.0197088,
2008-09-22, 02:39:00,VALID,917.06,VALID,0,VALID,100,VALID,0,VALID,18.9913,VALID,64,VALID,0.0246264,
2008-09-22, 02:40:00,VALID,917.053,VALID,0,VALID,100,VALID,0,VALID,18.9976,VALID,35,VALID,0,
2008-09-22, 02:41:00,VALID,917.054,VALID,0,VALID,100,VALID,0,VALID,18.9976,VALID,18,VALID,0,
2008-09-22, 02:42:00,VALID,917.042,VALID,0,VALID,100,VALID,0.0339617,VALID,18.9874,VALID,9,VALID,0.0598958,
2008-09-22, 02:43:00,VALID,917.036,VALID,0,VALID,100,VALID,0.0169808,VALID,18.9971,VALID,9,VALID,0.0602134,
2008-09-22, 02:44:00,VALID,917.031,VALID,0,VALID,100,VALID,0,VALID,19.0038,VALID,9,VALID,0,
2008-09-22, 02:45:00,VALID,917.021,VALID,0,VALID,100,VALID,0.0339617,VALID,18.9809,VALID,9,VALID,0,
2008-09-22, 02:46:00,VALID,917.007,VALID,0,VALID,100,VALID,0,VALID,18.9714,VALID,9,VALID,0,
2008-09-22, 02:47:00,VALID,917,VALID,0,VALID,100,VALID,0.0169808,VALID,18.9647,VALID,9,VALID,0,
2008-09-22, 02:48:00,VALID,916.969,VALID,0,VALID,100,VALID,0.0169808,VALID,18.9519,VALID,9,VALID,0,
2008-09-22, 02:49:00,VALID,916.977,VALID,0,VALID,100,VALID,-0.0849042,VALID,18.9434,VALID,9,VALID,0,
2008-09-22, 02:50:00,VALID,916.964,VALID,0,VALID,100,VALID,-0.101885,VALID,18.9337,VALID,9,VALID,0,
2008-09-22, 02:51:00,VALID,916.962,VALID,0,VALID,100,VALID,-0.101885,VALID,18.9372,VALID,9,VALID,0,
2008-09-22, 02:52:00,VALID,916.963,VALID,0,VALID,100,VALID,-0.101885,VALID,18.9177,VALID,9,VALID,0,
2008-09-22, 02:53:00,VALID,916.949,VALID,0,VALID,100,VALID,-0.101885,VALID,18.9017,VALID,13,VALID,0,
2008-09-22, 02:54:00,VALID,916.943,VALID,0,VALID,100,VALID,-0.101885,VALID,18.869,VALID,14,VALID,0,
2008-09-22, 02:55:00,VALID,916.939,VALID,0,VALID,100,VALID,-0.101885,VALID,18.8628,VALID,20,VALID,0,
2008-09-22, 02:56:00,VALID,916.93,VALID,0,VALID,100,VALID,-0.0849042,VALID,18.8496,VALID,44,VALID,0,
2008-09-22, 02:57:00,VALID,916.936,VALID,0,VALID,100,VALID,-0.101885,VALID,18.8398,VALID,39,VALID,0,
2008-09-22, 02:58:00,VALID,916.932,VALID,0,VALID,100,VALID,-0.101885,VALID,18.8366,VALID,39,VALID,0,
2008-09-22, 02:59:00,VALID,916.921,VALID,0,VALID,100,VALID,-0.101885,VALID,18.8234,VALID,40,VALID,0,
2008-09-22, 03:00:00,VALID,916.916,VALID,0,VALID,100,VALID,-0.152827,VALID,18.8072,VALID,51,VALID,0,
2008-09-22, 03:01:00,VALID,916.912,VALID,0,VALID,100,VALID,-0.101885,VALID,18.8076,VALID,64,VALID,0,
2008-09-22, 03:02:00,VALID,916.919,VALID,0,VALID,100,VALID,-0.118866,VALID,18.7815,VALID,76,VALID,0,
2008-09-22, 03:03:00,VALID,916.922,VALID,0,VALID,100,VALID,-0.118866,VALID,18.7592,VALID,83,VALID,0,
2008-09-22, 03:04:00,VALID,916.947,VALID,0,VALID,100,VALID,-0.0679233,VALID,18.7356,VALID,85,VALID,0,
2008-09-22, 03:05:00,VALID,916.956,VALID,0,VALID,100,VALID,-0.0339617,VALID,18.7154,VALID,88,VALID,0,
2008-09-22, 03:06:00,VALID,916.978,VALID,0,VALID,100,VALID,-0.0169808,VALID,18.7159,VALID,88,VALID,0,
2008-09-22, 03:07:00,VALID,916.99,VALID,0,VALID,100,VALID,-0.0339617,VALID,18.7094,VALID,88,VALID,0,
2008-09-22, 03:08:00,VALID,916.993,VALID,0,VALID,100,VALID,-0.0339617,VALID,18.6735,VALID,88,VALID,0,
2008-09-22, 03:09:00,VALID,917.001,VALID,0,VALID,100,VALID,-0.0169808,VALID,18.6512,VALID,88,VALID,0,
2008-09-22, 03:10:00,VALID,916.981,VALID,0,VALID,100,VALID,-0.0679233,VALID,18.6385,VALID,88,VALID,0,
2008-09-22, 03:11:00,VALID,916.964,VALID,0,VALID,100,VALID,-0.0169808,VALID,18.622,VALID,88,VALID,0,
2008-09-22, 03:12:00,VALID,916.946,VALID,0,VALID,100,VALID,-0.0339617,VALID,18.6121,VALID,88,VALID,0,
2008-09-22, 03:13:00,VALID,916.918,VALID,0,VALID,100,VALID,-0.0679233,VALID,18.6058,VALID,88,VALID,0,
2008-09-22, 03:14:00,VALID,916.907,VALID,0,VALID,100,VALID,-0.0169808,VALID,18.6093,VALID,88,VALID,0,
2008-09-22, 03:15:00,VALID,916.896,VALID,0,VALID,100,VALID,-0.0339617,VALID,18.5996,VALID,88,VALID,0,
2008-09-22, 03:16:00,VALID,916.891,VALID,0,VALID,100,VALID,-0.0339617,VALID,18.5829,VALID,88,VALID,0,
2008-09-22, 03:17:00,VALID,916.904,VALID,0,VALID,100,VALID,-0.0339617,VALID,18.5864,VALID,88,VALID,0,
2008-09-22, 03:18:00,VALID,916.914,VALID,0,VALID,100,VALID,-0.0509425,VALID,18.5959,VALID,88,VALID,0,
2008-09-22, 03:19:00,VALID,916.921,VALID,0,VALID,100,VALID,-0.0679233,VALID,18.6061,VALID,88,VALID,0,
2008-09-22, 03:20:00,VALID,916.914,VALID,0,VALID,100,VALID,-0.0339617,VALID,18.6223,VALID,88,VALID,0,
2008-09-22, 03:21:00,VALID,916.903,VALID,0,VALID,100,VALID,-0.0169808,VALID,18.5989,VALID,88,VALID,0,
2008-09-22, 03:22:00,VALID,916.89,VALID,0,VALID,100,VALID,-0.0169808,VALID,18.5801,VALID,88,VALID,0,
2008-09-22, 03:23:00,VALID,916.884,VALID,0,VALID,100,VALID,-0.0339617,VALID,18.5338,VALID,88,VALID,0,
2008-09-22, 03:24:00,VALID,916.861,VALID,0,VALID,100,VALID,-0.0169808,VALID,18.5213,VALID,88,VALID,0,
2008-09-22, 03:25:00,VALID,916.854,VALID,0,VALID,100,VALID,-0.0339617,VALID,18.5145,VALID,88,VALID,0,
2008-09-22, 03:26:00,VALID,916.866,VALID,0,VALID,100,VALID,-0.0169808,VALID,18.5213,VALID,88,VALID,0,
2008-09-22, 03:27:00,VALID,916.882,VALID,0,VALID,100,VALID,-0.0509425,VALID,18.528,VALID,88,VALID,0,
2008-09-22, 03:28:00,VALID,916.917,VALID,0,VALID,100,VALID,-0.0339617,VALID,18.5345,VALID,88,VALID,0,
2008-09-22, 03:29:00,VALID,916.935,VALID,0,VALID,100,VALID,-0.0339617,VALID,18.5315,VALID,88,VALID,0,
2008-09-22, 03:30:00,VALID,916.97,VALID,0,VALID,100,VALID,-0.0169808,VALID,18.4754,VALID,88,VALID,0,
2008-09-22, 03:31:00,VALID,916.976,VALID,0,VALID,100,VALID,-0.0169808,VALID,18.5148,VALID,88,VALID,0,
2008-09-22, 03:32:00,VALID,916.975,VALID,0,VALID,100,VALID,-0.0509425,VALID,18.5701,VALID,88,VALID,0,
2008-09-22, 03:33:00,VALID,916.967,VALID,0,VALID,100,VALID,-0.0339617,VALID,18.544,VALID,88,VALID,0,
2008-09-22, 03:34:00,VALID,916.957,VALID,0,VALID,100,VALID,-0.0679233,VALID,18.5484,VALID,88,VALID,0,
2008-09-22, 03:35:00,VALID,916.941,VALID,0,VALID,100,VALID,-0.101885,VALID,18.5489,VALID,88,VALID,0.00816761,
2008-09-22, 03:36:00,VALID,916.919,VALID,0,VALID,100,VALID,-0.169808,VALID,18.5553,VALID,90,VALID,0.0793679,
2008-09-22, 03:37:00,VALID,916.919,VALID,0,VALID,100,VALID,-0.135847,VALID,18.5685,VALID,149,VALID,0,
2008-09-22, 03:38:00,VALID,916.91,VALID,0,VALID,100,VALID,-0.135847,VALID,18.5519,VALID,151,VALID,0,
2008-09-22, 03:39:00,VALID,916.924,VALID,0,VALID,100,VALID,-0.101885,VALID,18.5349,VALID,151,VALID,0,
2008-09-22, 03:40:00,VALID,916.93,VALID,0,VALID,100,VALID,-0.118866,VALID,18.5287,VALID,151,VALID,0,
2008-09-22, 03:41:00,VALID,916.942,VALID,0,VALID,100,VALID,-0.186789,VALID,18.5553,VALID,148,VALID,0,
2008-09-22, 03:42:00,VALID,916.941,VALID,0,VALID,100,VALID,-0.101885,VALID,18.5845,VALID,137,VALID,0,
2008-09-22, 03:43:00,VALID,916.942,VALID,0,VALID,100,VALID,-0.118866,VALID,18.5975,VALID,133,VALID,0.0573509,
2008-09-22, 03:44:00,VALID,916.919,VALID,0,VALID,100,VALID,-0.118866,VALID,18.5838,VALID,140,VALID,0.953488,
2008-09-22, 03:45:00,VALID,916.905,VALID,0,VALID,100,VALID,-0.101885,VALID,18.5641,VALID,141,VALID,0.901736,
2008-09-22, 03:46:00,VALID,916.89,VALID,0,VALID,100,VALID,-0.101885,VALID,18.5676,VALID,151,VALID,1.16289,
2008-09-22, 03:47:00,VALID,916.866,VALID,0,VALID,100,VALID,-0.118866,VALID,18.5841,VALID,150,VALID,1.26669,
2008-09-22, 03:48:00,VALID,916.871,VALID,0,VALID,100,VALID,-0.101885,VALID,18.5936,VALID,144,VALID,0.981971,